Location: Blanot
(47.1713°N, 4.2340°E)
Time: 04:06:51
(UTC+00:00)

Cosmos 1378 Rocket - Pass Details

Date: 14 July 2020
Orbit: 602 x 626 km, 82.5° (Epoch: 06 August)

Event Time Altitude Azimuth Distance (km) Brightness Sun altitude
Rises 02:16:04 0° 353° (N) 2,899 7.8 -13.7°
Reaches altitude 10° 02:18:19 10° 356° (N) 1,993 6.9 -13.4°
Maximum altitude 02:22:43 65° 79° (E) 685 3.9 -13.0°
Drops below altitude 10° 02:27:05 10° 162° (SSE) 1,990 5.8 -12.5°
Enters shadow 02:28:29 - 164° (SSE) 2,551 6.4 -12.4°
